[[{"header":{"parameterUnit":"m.s-1","parameterCategory":2,"la1":30.2991,"la2":30.254,"lo1":-89.0895,"lo2":-89.0444,"dy":0.0017,"dx":0.0017,"nx":28,"ny":28,"refTime":"2024-02-05T09:00:00:Z","depth":"0","parameterNumber":2,"parameterNumberName":"U-component_of_CURRENTS"},"data":[0,0,0,0,0,0,0,0,0,0,0,0,0,0,0,0,0,0,0,0,0,0,0,0,0,0,0,0,0,0,0,0,0,0,0,0,0,0,0,0,0,0,0,0,0,0,0,0,0,0,0,0,0,0,0,0,0,0,0.1769,0.1769,0,0.1762,0.1762,0.1761,0.1735,0.1735,0.1735,0.1734,0.1702,0.1701,0.1701,0,0,0,0,0,0,0,0,0,0,0,0,0,0.1769,0.1769,0.1769,0.1769,0.1769,0.1762,0.1762,0.1761,0.1735,0.1735,0.1734,0.1734,0.1702,0.1702,0.1701,0,0,0,0,0,0,0,0,0,0,0,0,0,0.1764,0.1769,0.1769,0.1757,0.1756,0.1762,0.1762,0.1761,0.1735,0.1735,0.1734,0.1734,0.1702,0.1702,0.1701,0.1707,0,0,0.1698,0.1698,0,0,0,0,0,0,0,0,0.1764,0.1763,0.1759,0.1758,0.1757,0.1751,0.175,0.1743,0.1736,0.1741,0.1734,0.1734,0.1718,0.1716,0.1713,0.1705,0.1704,0.1698,0.1698,0.1697,0.1697,0,0,0,0,0,0,0,0.1764,0.1764,0.1763,0.1759,0.1758,0.1756,0.1754,0.1748,0.173,0.174,0.1739,0.1742,0.1717,0.1713,0.1712,0.1703,0.1698,0.1698,0.1697,0.1697,0.1717,0.1718,0,0,0,0,0,0,0.1771,0.1764,0.1764,0.1763,0.1762,0.1756,0.1754,0.1751,0.1731,0.1728,0.1743,0.1741,0.1715,0.1713,0.171,0.173,0.1697,0.1697,0.1696,0.1716,0.1717,0.1718,0,0,0,0,0,0,0.177,0.177,0.1764,0.1766,0.1765,0.1757,0.1754,0.1752,0.175,0.1733,0.1729,0.1744,0.1715,0.1711,0.1712,0.1728,0.1696,0.1696,0.1715,0.1716,0.1718,0.176,0,0,0,0,0,0,0.177,0.177,0.1772,0.1766,0.1766,0.177,0.1755,0.1752,0.1754,0.1752,0.1734,0.173,0.1714,0.1713,0.1711,0.1726,0.1695,0.1714,0.1716,0.1717,0.1758,0.1763,0.1768,0,0,0,0,0,0.177,0.1773,0.1772,0.1772,0.1767,0.1771,0.177,0.1761,0.1755,0.1757,0.1748,0.173,0.1724,0.1713,0.1711,0.1726,0.1713,0.1715,0.1717,0.1755,0.1762,0.1768,0,0,0,0,0,0,0.1775,0.1771,0.1769,0.1771,0.1774,0.1768,0.1771,0.1767,0.1761,0.1758,0.174,0.1736,0.1744,0.1732,0.1721,0.1739,0.1717,0.1719,0.1747,0.1753,0.1758,0.1774,0.1694,0,0,0,0,0,0.1778,0.1778,0.1778,0.1781,0.1784,0.178,0.1781,0.1776,0.1771,0.1768,0.1754,0.1748,0.1752,0.1749,0.1745,0.1753,0.1756,0.1763,0.1768,0.1772,0.1784,0.1802,0.181,0.1726,0.1726,0.1726,0,0,0.1781,0.1781,0.1781,0.1783,0.1783,0.1792,0.1778,0.1783,0.1793,0.1766,0.1771,0.1764,0.1759,0.1769,0.1771,0.1759,0.1799,0.1775,0.1779,0.1789,0.1806,0.1814,0.1821,0.1727,0.1727,0.1727,0,0,0.1792,0.1788,0.1794,0.1799,0.1805,0.1803,0.1807,0.1803,0.1804,0.1812,0.18,0.1807,0.1799,0.1804,0.1807,0.184,0.1826,0.1835,0.1871,0.1888,0.1895,0.1902,0.192,0.1927,0.1836,0.1836,0.1836,0,0.1799,0.1803,0.1798,0.181,0.1817,0.1811,0.1824,0.1829,0.1825,0.1832,0.1819,0.1829,0.1823,0.185,0.1863,0.1853,0.1858,0.1846,0.1895,0.1901,0.1907,0.1924,0.1932,0.1838,0.1838,0.1838,0.1838,0,0.1815,0.1822,0.1828,0.1838,0.1846,0.1854,0.1863,0.187,0.1869,0.1871,0.1892,0.1887,0.1895,0.1896,0.1891,0.193,0.192,0.19,0.1879,0.1918,0.1934,0.1941,0.1842,0.1841,0.184,0.184,0,0,0.1822,0.1835,0.1839,0.1848,0.186,0.1867,0.1892,0.1911,0.1933,0.1929,0.1959,0.197,0.1964,0.1969,0.1962,0.1979,0.2026,0.1961,0.196,0.1979,0.2068,0.2062,0.2069,0.2011,0.2012,0.2013,0.2064,0,0.1837,0.1858,0.1863,0.1887,0.1898,0.1906,0.1931,0.1948,0.1963,0.1989,0.1996,0.2017,0.1993,0.2003,0.2019,0.2028,0.2047,0.2015,0.2028,0.2029,0.2018,0.2078,0.207,0.2115,0.2071,0.2072,0.2073,0,0.1852,0.1863,0.1887,0.191,0.1917,0.1931,0.1969,0.1992,0.203,0.2046,0.2068,0.207,0.2105,0.2076,0.2111,0.209,0.2089,0.2089,0.209,0.2077,0.2037,0.2068,0.2129,0.2143,0.2084,0.2083,0.2082,0,0.1854,0.188,0.1896,0.1905,0.1932,0.1948,0.1965,0.2005,0.2035,0.2086,0.211,0.2139,0.2162,0.2167,0.2168,0.2144,0.2205,0.2167,0.216,0.2159,0.2153,0.2149,0.2229,0.2196,0.2196,0.2196,0.2196,0,0.1864,0.1878,0.1898,0.1906,0.1933,0.1954,0.1993,0.2022,0.2073,0.2112,0.2135,0.2176,0.2186,0.2213,0.2201,0.2215,0.223,0.2189,0.218,0.2167,0.2164,0.2174,0.2158,0.2198,0.2197,0.2197,0.2197,0,0.1862,0.1874,0.1895,0.1923,0.1933,0.1954,0.2001,0.2029,0.2082,0.2138,0.2157,0.2218,0.2261,0.2265,0.2291,0.2262,0.2235,0.2265,0.2253,0.2242,0.2233,0.2219,0.2157,0.2083,0.2271,0.2271,0.2271,0,0.1861,0.1871,0.1901,0.1911,0.1922,0.1954,0.1973,0.2027,0.2064,0.2161,0.2187,0.2257,0.2306,0.2349,0.233,0.2327,0.2256,0.2298,0.225,0.2259,0.2237,0.2118,0.205,0.2261,0.2261,0.2261,0.2261,0,0.1859,0.187,0.1884,0.1903,0.192,0.1943,0.1979,0.2012,0.2082,0.2137,0.2222,0.2278,0.2344,0.2359,0.2358,0.2344,0.2237,0.2298,0.2316,0.2255,0.2123,0.2038,0.2201,0.2262,0.2262,0.2262,0.2262,0.2262,0.1856,0.1861,0.1876,0.1889,0.1905,0.1919,0.1926,0.1978,0.2035,0.2113,0.2205,0.2298,0.2369,0.2383,0.234,0.2326,0.2237,0.2301,0.2291,0.2173,0.2083,0.225,0.229,0.229,0.229,0.229,0.229,0,0.184,0.1843,0.1857,0.1861,0.1854,0.1878,0.1913,0.1916,0.1958,0.2088,0.2161,0.2319,0.2352,0.2383,0.2397,0.2351,0.22,0.2319,0.218,0.2113,0.2303,0.2289,0.232,0.232,0.232,0.232,0.232,0.232,0.1832,0.1826,0.1825,0.1802,0.1802,0.1781,0.1789,0.1815,0.1896,0.2019,0.2146,0.2249,0.2417,0.2517,0.2504,0.243,0.2253,0.219,0.2119,0.233,0.2327,0.2325,0.2311,0.2346,0.2346,0.1864,0.1861,0.1859]},{"header":{"parameterUnit":"m.s-1","parameterCategory":2,"la1":30.2991,"la2":30.254,"lo1":-89.0895,"lo2":-89.0444,"dy":0.0017,"dx":0.0017,"nx":28,"ny":28,"refTime":"2024-02-05T09:00:00:Z","depth":"0","parameterNumber":3,"parameterNumberName":"V-component_of_CURRENTS"},"data":[0,0,0,0,0,0,0,0,0,0,0,0,0,0,0,0,0,0,0,0,0,0,0,0,0,0,0,0,0,0,0,0,0,0,0,0,0,0,0,0,0,0,0,0,0,0,0,0,0,0,0,0,0,0,0,0,0,0,-0.0121,-0.0122,0,-0.0137,-0.0137,-0.0137,-0.0152,-0.0152,-0.0152,-0.0152,-0.0171,-0.0171,-0.0171,0,0,0,0,0,0,0,0,0,0,0,0,0,-0.013,-0.013,-0.0121,-0.0122,-0.0122,-0.0137,-0.0137,-0.0137,-0.0152,-0.0152,-0.0152,-0.0152,-0.017,-0.0171,-0.0171,0,0,0,0,0,0,0,0,0,0,0,0,0,-0.0134,-0.0129,-0.0121,-0.0131,-0.0131,-0.0137,-0.0137,-0.0137,-0.0152,-0.0152,-0.0152,-0.0152,-0.017,-0.0171,-0.0171,-0.017,0,0,-0.0173,-0.0173,0,0,0,0,0,0,0,0,-0.0134,-0.0134,-0.0129,-0.013,-0.0131,-0.0142,-0.0147,-0.0148,-0.0152,-0.0144,-0.0152,-0.0152,-0.0161,-0.0162,-0.0165,-0.0171,-0.0172,-0.0173,-0.0173,-0.0174,-0.0174,0,0,0,0,0,0,0,-0.0133,-0.0133,-0.0128,-0.0129,-0.013,-0.0143,-0.0143,-0.0147,-0.0151,-0.0145,-0.0146,-0.0147,-0.0162,-0.0165,-0.0166,-0.0172,-0.0173,-0.0173,-0.0174,-0.0174,-0.0177,-0.0177,0,0,0,0,0,0,-0.0129,-0.0133,-0.0127,-0.0128,-0.0133,-0.0142,-0.0143,-0.0139,-0.0151,-0.0153,-0.0147,-0.0148,-0.0164,-0.0165,-0.0166,-0.0157,-0.0174,-0.0174,-0.0174,-0.0177,-0.0177,-0.0177,0,0,0,0,0,0,-0.0129,-0.0128,-0.0127,-0.0131,-0.0132,-0.0142,-0.0137,-0.0139,-0.0142,-0.0153,-0.0155,-0.0147,-0.0164,-0.0166,-0.0167,-0.0158,-0.0174,-0.0175,-0.0178,-0.0177,-0.0177,-0.0144,0,0,0,0,0,0,-0.0129,-0.0128,-0.0123,-0.0131,-0.0131,-0.0124,-0.0137,-0.0139,-0.0142,-0.0143,-0.0154,-0.0156,-0.0164,-0.0166,-0.0167,-0.0159,-0.0175,-0.0178,-0.0177,-0.0177,-0.0146,-0.0143,-0.0141,0,0,0,0,0,-0.013,-0.0119,-0.0123,-0.0122,-0.0124,-0.0124,-0.0125,-0.0134,-0.0142,-0.0138,-0.0147,-0.0156,-0.0164,-0.0166,-0.0168,-0.016,-0.0178,-0.0178,-0.0177,-0.0147,-0.0143,-0.0141,0,0,0,0,0,0,-0.0121,-0.012,-0.0124,-0.0114,-0.0117,-0.0126,-0.0123,-0.0132,-0.0136,-0.0138,-0.0152,-0.0154,-0.0152,-0.0161,-0.0163,-0.016,-0.0173,-0.0173,-0.015,-0.0147,-0.0144,-0.0134,-0.0176,0,0,0,0,0,-0.0117,-0.0108,-0.0112,-0.0105,-0.0105,-0.0115,-0.0116,-0.0122,-0.0128,-0.013,-0.0139,-0.0148,-0.0152,-0.0153,-0.0159,-0.0156,-0.017,-0.0153,-0.015,-0.0148,-0.0141,-0.0158,-0.0156,-0.0175,-0.0175,-0.0175,0,0,-0.0113,-0.0111,-0.0107,-0.0103,-0.0106,-0.0099,-0.0116,-0.0115,-0.0107,-0.0131,-0.0125,-0.0139,-0.0149,-0.0146,-0.0146,-0.0152,-0.0151,-0.0147,-0.0145,-0.0139,-0.0157,-0.0155,-0.0154,-0.0175,-0.0175,-0.0175,0,0,-0.0097,-0.0097,-0.0083,-0.0082,-0.0083,-0.0087,-0.0086,-0.0093,-0.0093,-0.0091,-0.0107,-0.0115,-0.0121,-0.0126,-0.013,-0.0117,-0.0137,-0.0121,-0.0097,-0.0114,-0.0112,-0.0111,-0.013,-0.0131,-0.0118,-0.0118,-0.0118,0,-0.0092,-0.0073,-0.008,-0.0068,-0.0062,-0.008,-0.0064,-0.0067,-0.0074,-0.0071,-0.0084,-0.0097,-0.0109,-0.0104,-0.0101,-0.011,-0.0125,-0.0107,-0.011,-0.0109,-0.0108,-0.0128,-0.0129,-0.0117,-0.0117,-0.0117,-0.0117,0,-0.0065,-0.0051,-0.0043,-0.003,-0.0026,-0.0016,-0.002,-0.0016,-0.0024,-0.0031,-0.0032,-0.0054,-0.006,-0.0068,-0.008,-0.008,-0.0094,-0.0106,-0.0116,-0.0105,-0.0126,-0.0128,-0.0114,-0.0115,-0.0115,-0.0116,0,0,-0.0048,-0.0027,-0.0023,-0.0007,-0.0004,0.0006,0.0019,0.0029,0.0043,0.0022,0.0035,0.0015,-0.0007,-0.0012,-0.0034,-0.005,-0.0063,-0.0073,-0.0075,-0.0089,-0.0102,-0.0124,-0.0128,-0.0077,-0.0077,-0.0077,-0.012,0,-0.0023,0.0014,0.0016,0.0049,0.0069,0.0063,0.008,0.0083,0.0081,0.0087,0.0056,0.0055,0.0018,0.0014,-0.0009,-0.0045,-0.0066,-0.0051,-0.0114,-0.0116,-0.0134,-0.013,-0.0145,-0.0185,-0.0122,-0.0123,-0.0123,0,0.0008,0.003,0.0071,0.0101,0.0109,0.0125,0.0154,0.0167,0.0165,0.0161,0.0145,0.0116,0.0091,0.0056,-0.0006,0.0005,-0.0045,-0.0081,-0.0084,-0.0114,-0.014,-0.0187,-0.0191,-0.0332,-0.0126,-0.0126,-0.0126,0,0.0036,0.0071,0.0109,0.0118,0.0146,0.0167,0.0181,0.0191,0.0215,0.0208,0.0216,0.0172,0.0159,0.009,0.0009,0.0002,-0.0063,-0.0083,-0.0151,-0.0153,-0.0183,-0.0188,-0.0327,-0.013,-0.013,-0.013,-0.013,0,0.007,0.0098,0.0128,0.015,0.0201,0.0202,0.0253,0.026,0.0277,0.0312,0.0256,0.0269,0.0167,0.0115,0.003,-0.0064,-0.005,-0.0145,-0.0164,-0.0173,-0.0176,-0.0313,-0.0375,-0.0132,-0.0131,-0.0131,-0.0131,0,0.0099,0.0115,0.0162,0.02,0.0218,0.0256,0.0306,0.0341,0.0344,0.0389,0.0388,0.0346,0.0275,0.0163,0.0056,-0.0028,-0.0208,-0.0161,-0.0166,-0.0185,-0.0381,-0.0439,-0.0571,-0.0673,-0.0242,-0.0243,-0.0244,0,0.0118,0.0147,0.0205,0.0242,0.0264,0.0318,0.036,0.0379,0.0423,0.0443,0.0472,0.041,0.0387,0.0211,0.0044,-0.0115,-0.0244,-0.0237,-0.0256,-0.0395,-0.0475,-0.0513,-0.0593,-0.0286,-0.0287,-0.0287,-0.0288,0,0.0158,0.0179,0.0221,0.0295,0.0349,0.0412,0.0473,0.0517,0.0548,0.058,0.0614,0.0593,0.0417,0.0252,0.0021,-0.01,-0.0353,-0.0258,-0.0403,-0.0521,-0.0569,-0.0675,-0.0258,-0.0295,-0.0294,-0.0294,-0.0293,-0.0293,0.0191,0.0229,0.0286,0.0357,0.042,0.0501,0.0557,0.0621,0.0695,0.0744,0.0723,0.0706,0.0445,0.0129,-0.0057,-0.0418,-0.0411,-0.0528,-0.0587,-0.0611,-0.0717,-0.0314,-0.0372,-0.0372,-0.0372,-0.0372,-0.0372,0,0.0234,0.0278,0.0345,0.0429,0.0498,0.0526,0.063,0.0682,0.0771,0.0812,0.0832,0.0682,0.0373,0.004,-0.0417,-0.0684,-0.0801,-0.0848,-0.0919,-0.0988,-0.0632,-0.0642,-0.076,-0.076,-0.076,-0.076,-0.076,-0.076,0.0259,0.0329,0.0362,0.048,0.0538,0.0628,0.0689,0.0767,0.0818,0.0855,0.0829,0.0773,0.0463,-0.0264,-0.0855,-0.1002,-0.1223,-0.1245,-0.1374,-0.1137,-0.1112,-0.1089,-0.1116,-0.1331,-0.1332,-0.172,-0.1724,-0.1727]}],[{"header":{"parameterUnit":"m.s-1","parameterCategory":2,"la1":30.2991,"la2":30.254,"lo1":-89.0895,"lo2":-89.0444,"dy":0.0017,"dx":0.0017,"nx":28,"ny":28,"refTime":"2024-02-05T09:00:00:Z","depth":"2","parameterNumber":2,"parameterNumberName":"U-component_of_CURRENTS"},"data":[0,0,0,0,0,0,0,0,0,0,0,0,0,0,0,0,0,0,0,0,0,0,0,0,0,0,0,0,0,0,0,0,0,0,0,0,0,0,0,0,0,0,0,0,0,0,0,0,0,0,0,0,0,0,0,0,0,0,0.1728,0.1728,0,0.1721,0.1721,0.1721,0.1696,0.1696,0.1696,0.1695,0.1665,0.1664,0.1664,0,0,0,0,0,0,0,0,0,0,0,0,0,0.1728,0.1728,0.1728,0.1728,0.1728,0.1721,0.1721,0.1721,0.1696,0.1696,0.1696,0.1695,0.1665,0.1664,0.1664,0,0,0,0,0,0,0,0,0,0,0,0,0,0.1723,0.1728,0.1728,0.1717,0.1716,0.1721,0.1721,0.1721,0.1697,0.1696,0.1696,0.1695,0.1665,0.1665,0.1664,0.1668,0,0,0.1661,0.1661,0,0,0,0,0,0,0,0,0.1723,0.1722,0.1719,0.1718,0.1717,0.1711,0.171,0.1703,0.1697,0.1701,0.1695,0.1695,0.168,0.1678,0.1675,0.1667,0.1666,0.1661,0.1661,0.166,0.166,0,0,0,0,0,0,0,0.1723,0.1723,0.1723,0.1719,0.1718,0.1716,0.1714,0.1708,0.1691,0.1701,0.17,0.1703,0.1679,0.1675,0.1674,0.1665,0.1661,0.1661,0.166,0.166,0.168,0.1681,0,0,0,0,0,0,0.173,0.1723,0.1723,0.1723,0.1722,0.1716,0.1714,0.1712,0.1692,0.1689,0.1704,0.1702,0.1677,0.1675,0.1673,0.1693,0.166,0.166,0.1659,0.1679,0.168,0.1681,0,0,0,0,0,0,0.1729,0.1729,0.1723,0.1725,0.1724,0.1717,0.1714,0.1712,0.1711,0.1695,0.1691,0.1706,0.1677,0.1674,0.1675,0.1691,0.1659,0.1659,0.1678,0.1679,0.1681,0.1723,0,0,0,0,0,0,0.1729,0.1729,0.1731,0.1725,0.1725,0.173,0.1715,0.1712,0.1715,0.1713,0.1695,0.1692,0.1676,0.1676,0.1674,0.1689,0.1658,0.1676,0.1678,0.168,0.1721,0.1726,0.1731,0,0,0,0,0,0.1729,0.1732,0.1731,0.1732,0.1727,0.173,0.173,0.1721,0.1716,0.1718,0.1709,0.1692,0.1687,0.1676,0.1673,0.1689,0.1675,0.1678,0.168,0.1718,0.1725,0.1731,0,0,0,0,0,0,0.1734,0.173,0.1729,0.1731,0.1734,0.1727,0.1731,0.1727,0.1722,0.172,0.1702,0.1698,0.1707,0.1694,0.1683,0.1702,0.168,0.1682,0.171,0.1716,0.1721,0.1736,0.1657,0,0,0,0,0,0.1738,0.1738,0.1738,0.1741,0.1744,0.174,0.1741,0.1736,0.1732,0.1729,0.1716,0.171,0.1714,0.1712,0.1708,0.1715,0.1718,0.1725,0.1731,0.1735,0.1747,0.1764,0.1772,0.1688,0.1688,0.1688,0,0,0.1741,0.174,0.1741,0.1743,0.1743,0.1752,0.1739,0.1744,0.1754,0.1727,0.1733,0.1726,0.1721,0.1731,0.1734,0.1721,0.1761,0.1738,0.1741,0.1751,0.1768,0.1776,0.1783,0.169,0.169,0.1689,0,0,0.1752,0.1748,0.1755,0.1759,0.1766,0.1763,0.1768,0.1764,0.1766,0.1773,0.1762,0.1769,0.1762,0.1767,0.1769,0.1802,0.1788,0.1797,0.1833,0.185,0.1857,0.1863,0.1881,0.1889,0.1798,0.1798,0.1799,0,0.1759,0.1763,0.1759,0.177,0.1777,0.1771,0.1784,0.1789,0.1786,0.1793,0.1781,0.1792,0.1785,0.1812,0.1825,0.1815,0.182,0.1808,0.1857,0.1863,0.1869,0.1885,0.1893,0.1801,0.18,0.18,0.18,0,0.1775,0.1782,0.1788,0.1798,0.1806,0.1815,0.1823,0.183,0.183,0.1833,0.1854,0.1849,0.1857,0.1858,0.1853,0.1892,0.1882,0.1862,0.1841,0.188,0.1895,0.1902,0.1804,0.1803,0.1803,0.1802,0,0,0.1783,0.1795,0.1799,0.1808,0.1821,0.1827,0.1852,0.187,0.1893,0.1889,0.192,0.1931,0.1925,0.193,0.1923,0.194,0.1987,0.1922,0.1922,0.194,0.2028,0.2021,0.2028,0.1972,0.1973,0.1975,0.2024,0,0.1798,0.1818,0.1823,0.1846,0.1857,0.1865,0.189,0.1907,0.1923,0.1948,0.1956,0.1977,0.1954,0.1965,0.198,0.1988,0.2008,0.1976,0.1989,0.1989,0.1978,0.2037,0.1821,0.1847,0.2031,0.2032,0.2033,0,0.1813,0.1824,0.1847,0.1869,0.1876,0.1891,0.1928,0.1951,0.1989,0.2005,0.2027,0.203,0.2065,0.2036,0.2071,0.205,0.2049,0.205,0.2051,0.2036,0.1996,0.1837,0.1853,0.2045,0.2044,0.2043,0.2042,0,0.1816,0.1841,0.1857,0.1865,0.1891,0.1908,0.1925,0.1965,0.1994,0.2045,0.2069,0.2098,0.2121,0.2126,0.2127,0.2104,0.2163,0.2126,0.2118,0.2117,0.1933,0.1914,0.2155,0.2155,0.2155,0.2154,0.2154,0,0.1825,0.1839,0.1858,0.1867,0.1894,0.1914,0.1954,0.1982,0.2033,0.2072,0.2095,0.2135,0.2145,0.2172,0.216,0.2173,0.2188,0.2146,0.2138,0.1943,0.1926,0.2091,0.2083,0.2156,0.2156,0.2155,0.2155,0,0.1824,0.1836,0.1857,0.1884,0.1895,0.1915,0.1962,0.199,0.2042,0.2099,0.2117,0.2177,0.2219,0.2223,0.2248,0.2219,0.2227,0.2221,0.2001,0.1967,0.2159,0.2153,0.2225,0.2225,0.2226,0.2226,0.2226,0,0.1823,0.1833,0.1864,0.1873,0.1884,0.1916,0.1935,0.1989,0.2025,0.2121,0.2146,0.2214,0.2255,0.2297,0.2233,0.2217,0.2259,0.2035,0.1959,0.2187,0.2171,0.2164,0.2157,0.1725,0.1721,0.1718,0.1715,0,0.1822,0.1834,0.1847,0.1866,0.1884,0.1905,0.1941,0.1974,0.2042,0.2089,0.2171,0.2218,0.2243,0.2131,0.2112,0.2074,0.2021,0.1974,0.2258,0.1758,0.1724,0.1706,0.1714,0.1687,0.169,0.1692,0.1693,0.1695,0.182,0.1825,0.184,0.1853,0.1869,0.1882,0.1888,0.1902,0.1945,0.1944,0.2082,0.2031,0.2033,0.1881,0.1828,0.1759,0.1907,0.1799,0.1805,0.1814,0.1766,0.1736,0.1691,0.1694,0.1696,0.1698,0.17,0,0.179,0.1807,0.182,0.1824,0.1799,0.1842,0.1875,0.181,0.1792,0.1782,0.1792,0.162,0.1547,0.1547,0.1387,0.1414,0.1352,0.1371,0.1248,0.1278,0.1305,0.1225,0.1009,0.1007,0.1006,0.1004,0,0,0.1779,0.1766,0.1765,0.1729,0.1742,0.1671,0.1676,0.1583,0.1522,0.1406,0.1329,0.1378,0.1465,0.1178,0.117,0.1057,0.1152,0.1016,0.1567,0.145,0.1473,0.1553,0.1467,0,0,0,0,0]},{"header":{"parameterUnit":"m.s-1","parameterCategory":2,"la1":30.2991,"la2":30.254,"lo1":-89.0895,"lo2":-89.0444,"dy":0.0017,"dx":0.0017,"nx":28,"ny":28,"refTime":"2024-02-05T09:00:00:Z","depth":"2","parameterNumber":3,"parameterNumberName":"V-component_of_CURRENTS"},"data":[0,0,0,0,0,0,0,0,0,0,0,0,0,0,0,0,0,0,0,0,0,0,0,0,0,0,0,0,0,0,0,0,0,0,0,0,0,0,0,0,0,0,0,0,0,0,0,0,0,0,0,0,0,0,0,0,0,0,-0.0052,-0.0052,0,-0.0067,-0.0067,-0.0067,-0.0082,-0.0083,-0.0083,-0.0083,-0.0101,-0.0101,-0.0102,0,0,0,0,0,0,0,0,0,0,0,0,0,-0.0062,-0.0062,-0.0052,-0.0052,-0.0053,-0.0067,-0.0067,-0.0067,-0.0082,-0.0083,-0.0083,-0.0083,-0.0101,-0.0101,-0.0102,0,0,0,0,0,0,0,0,0,0,0,0,0,-0.0065,-0.0061,-0.0052,-0.0062,-0.0063,-0.0067,-0.0067,-0.0067,-0.0082,-0.0083,-0.0083,-0.0083,-0.0101,-0.0101,-0.0102,-0.0098,0,0,-0.0103,-0.0103,0,0,0,0,0,0,0,0,-0.0065,-0.0065,-0.006,-0.0061,-0.0062,-0.0073,-0.0077,-0.0078,-0.0082,-0.0075,-0.0083,-0.0083,-0.0092,-0.0093,-0.0095,-0.0099,-0.01,-0.0103,-0.0103,-0.0103,-0.0104,0,0,0,0,0,0,0,-0.0065,-0.0065,-0.0058,-0.006,-0.0062,-0.0074,-0.0074,-0.0077,-0.0082,-0.0076,-0.0077,-0.0078,-0.0092,-0.0095,-0.0096,-0.01,-0.0103,-0.0103,-0.0104,-0.0104,-0.0105,-0.0105,0,0,0,0,0,0,-0.0061,-0.0064,-0.0058,-0.0059,-0.0064,-0.0073,-0.0074,-0.0069,-0.0082,-0.0084,-0.0078,-0.0079,-0.0094,-0.0095,-0.0096,-0.0087,-0.0103,-0.0104,-0.0104,-0.0105,-0.0105,-0.0105,0,0,0,0,0,0,-0.0061,-0.006,-0.0057,-0.0062,-0.0063,-0.0072,-0.0067,-0.0069,-0.0073,-0.0083,-0.0085,-0.0079,-0.0094,-0.0096,-0.0097,-0.0088,-0.0104,-0.0104,-0.0105,-0.0105,-0.0105,-0.0073,0,0,0,0,0,0,-0.0061,-0.006,-0.0055,-0.0061,-0.0062,-0.0054,-0.0067,-0.007,-0.0073,-0.0074,-0.0085,-0.0087,-0.0094,-0.0096,-0.0097,-0.0089,-0.0105,-0.0106,-0.0105,-0.0105,-0.0074,-0.0072,-0.0069,0,0,0,0,0,-0.0061,-0.0051,-0.0055,-0.0054,-0.0055,-0.0054,-0.0055,-0.0064,-0.0073,-0.0069,-0.0078,-0.0087,-0.0094,-0.0096,-0.0097,-0.009,-0.0106,-0.0105,-0.0105,-0.0076,-0.0072,-0.007,0,0,0,0,0,0,-0.0054,-0.0052,-0.0056,-0.0046,-0.0049,-0.0056,-0.0054,-0.0062,-0.0067,-0.007,-0.0082,-0.0084,-0.0083,-0.0091,-0.0093,-0.0089,-0.0102,-0.0102,-0.0079,-0.0076,-0.0074,-0.0064,-0.0105,0,0,0,0,0,-0.0049,-0.0041,-0.0044,-0.0037,-0.0036,-0.0046,-0.0047,-0.0053,-0.0059,-0.0062,-0.007,-0.0078,-0.0081,-0.0083,-0.0088,-0.0084,-0.0098,-0.0081,-0.0079,-0.0076,-0.007,-0.0086,-0.0084,-0.0103,-0.0103,-0.0103,0,0,-0.0045,-0.0043,-0.0039,-0.0035,-0.0038,-0.003,-0.0047,-0.0046,-0.0039,-0.0062,-0.0056,-0.0069,-0.0079,-0.0075,-0.0075,-0.0081,-0.008,-0.0076,-0.0074,-0.0068,-0.0085,-0.0084,-0.0082,-0.0103,-0.0103,-0.0103,0,0,-0.003,-0.003,-0.0016,-0.0015,-0.0016,-0.0019,-0.0018,-0.0025,-0.0026,-0.0023,-0.0038,-0.0046,-0.0051,-0.0056,-0.0059,-0.0046,-0.0066,-0.005,-0.0027,-0.0043,-0.0041,-0.004,-0.006,-0.006,-0.0047,-0.0047,-0.0047,0,-0.0026,-0.0006,-0.0013,-0.0,0.0006,-0.0012,0.0004,0.0001,-0.0005,-0.0002,-0.0016,-0.0027,-0.004,-0.0033,-0.003,-0.0039,-0.0054,-0.0036,-0.0039,-0.0038,-0.0038,-0.0058,-0.0059,-0.0046,-0.0046,-0.0046,-0.0046,0,0.0002,0.0016,0.0024,0.0037,0.0041,0.0052,0.0049,0.0052,0.0044,0.0037,0.0037,0.0016,0.0009,0.0002,-0.001,-0.0009,-0.0024,-0.0035,-0.0046,-0.0034,-0.0056,-0.0058,-0.0043,-0.0044,-0.0044,-0.0045,0,0,0.0018,0.004,0.0044,0.006,0.0064,0.0074,0.0088,0.0098,0.0112,0.0091,0.0105,0.0085,0.0063,0.0058,0.0036,0.0021,0.0006,-0.0003,-0.0005,-0.002,-0.0033,-0.0056,-0.006,-0.0007,-0.0007,-0.0007,-0.0052,0,0.0043,0.0081,0.0083,0.0117,0.0137,0.0131,0.0149,0.0153,0.015,0.0156,0.0126,0.0125,0.0088,0.0083,0.0061,0.0025,0.0003,0.0019,-0.0044,-0.0046,-0.0065,-0.0062,-0.0012,-0.0048,-0.0054,-0.0054,-0.0054,0,0.0074,0.0097,0.0138,0.0169,0.0177,0.0193,0.0223,0.0236,0.0235,0.023,0.0214,0.0185,0.016,0.0125,0.0063,0.0074,0.0024,-0.0012,-0.0015,-0.0046,-0.0072,-0.0061,-0.0052,-0.0058,-0.0058,-0.0057,-0.0057,0,0.0101,0.0137,0.0175,0.0185,0.0214,0.0234,0.0249,0.0259,0.0283,0.0276,0.0284,0.024,0.0226,0.0158,0.0077,0.007,0.0005,-0.0014,-0.0084,-0.0086,-0.006,-0.006,-0.0062,-0.0062,-0.0061,-0.0061,-0.0061,0,0.0134,0.0163,0.0193,0.0215,0.0266,0.0269,0.0319,0.0326,0.0343,0.0378,0.0322,0.0335,0.0234,0.0181,0.0097,0.0002,0.0017,-0.0078,-0.0097,-0.0049,-0.0048,-0.0068,-0.0069,-0.0063,-0.0063,-0.0062,-0.0062,0,0.0163,0.0179,0.0226,0.0265,0.0283,0.032,0.0371,0.0406,0.0409,0.0453,0.0451,0.041,0.0338,0.0228,0.0122,0.0037,-0.0056,-0.0096,-0.0036,-0.0049,-0.0143,-0.0141,-0.0177,-0.0178,-0.0179,-0.0179,-0.018,0,0.0181,0.021,0.0268,0.0305,0.0327,0.038,0.0422,0.0442,0.0486,0.0506,0.0535,0.0472,0.0449,0.0273,0.0124,-0.003,-0.0068,-0.0107,-0.0116,-0.0138,-0.0154,-0.0151,-0.0147,-0.007,-0.007,-0.0069,-0.0069,0,0.0221,0.0241,0.0283,0.0356,0.0409,0.0473,0.0534,0.0578,0.0609,0.0643,0.0675,0.0654,0.0493,0.0358,0.0134,0.0031,-0.0081,-0.0109,-0.0137,-0.0053,-0.0043,-0.0057,-0.0056,-0.0067,-0.0067,-0.0067,-0.0068,-0.0068,0.0252,0.029,0.0346,0.0417,0.048,0.0561,0.0617,0.0695,0.0771,0.084,0.0795,0.0778,0.0599,0.0338,0.0146,-0.0061,-0.0062,-0.0134,-0.0132,-0.0132,-0.0116,-0.0108,-0.0142,-0.0143,-0.0143,-0.0144,-0.0144,0,0.0304,0.0337,0.0404,0.0488,0.0569,0.0585,0.0689,0.0777,0.0887,0.0929,0.0958,0.0808,0.0629,0.0404,0.012,-0.0065,-0.0065,-0.014,-0.0089,-0.0089,-0.009,-0.0071,-0.0086,-0.0086,-0.0087,-0.0087,0,0,0.0332,0.0406,0.0438,0.0562,0.0611,0.0739,0.0801,0.0933,0.1009,0.1081,0.1056,0.0989,0.0708,0.0508,0.0262,0.009,0.004,0.0054,0.0032,0.0124,0.0125,-0.0057,-0.0025,0,0,0,0,0]}],[{"header":{"parameterUnit":"m.s-1","parameterCategory":2,"la1":30.2991,"la2":30.254,"lo1":-89.0895,"lo2":-89.0444,"dy":0.0017,"dx":0.0017,"nx":28,"ny":28,"refTime":"2024-02-05T09:00:00:Z","depth":"4","parameterNumber":2,"parameterNumberName":"U-component_of_CURRENTS"},"data":[0,0,0,0,0,0,0,0,0,0,0,0,0,0,0,0,0,0,0,0,0,0,0,0,0,0,0,0,0,0,0,0,0,0,0,0,0,0,0,0,0,0,0,0,0,0,0,0,0,0,0,0,0,0,0,0,0,0,0.0991,0.0991,0,0.1022,0.1022,0.1022,0.1048,0.1048,0.1049,0.1049,0.1085,0.1086,0.1086,0,0,0,0,0,0,0,0,0,0,0,0,0,0.0955,0.0955,0.0991,0.0991,0.0992,0.1022,0.1022,0.1022,0.1048,0.1048,0.1049,0.1049,0.1085,0.1086,0.1086,0,0,0,0,0,0,0,0,0,0,0,0,0,0.0975,0.0956,0.0991,0.1009,0.1011,0.1022,0.1022,0.1022,0.1048,0.1048,0.1049,0.105,0.1085,0.1086,0.1087,0.108,0,0,0.1089,0.109,0,0,0,0,0,0,0,0,0.0974,0.0976,0.1006,0.1008,0.101,0.1033,0.1023,0.1042,0.1048,0.1032,0.1049,0.105,0.1069,0.1071,0.1073,0.1081,0.1083,0.1089,0.109,0.109,0.109,0,0,0,0,0,0,0,0.0973,0.0975,0.1002,0.1007,0.1009,0.1017,0.102,0.1027,0.1046,0.1034,0.1036,0.1042,0.107,0.1072,0.1074,0.1084,0.1089,0.109,0.1091,0.1091,0.116,0.1162,0,0,0,0,0,0,0.0971,0.0974,0.1001,0.1003,0.0995,0.1017,0.1021,0.1024,0.1046,0.105,0.1041,0.1043,0.1071,0.1073,0.1076,0.1135,0.109,0.1091,0.1092,0.1159,0.1161,0.1162,0,0,0,0,0,0,0.097,0.0973,0.1,0.099,0.0994,0.1017,0.102,0.1024,0.105,0.1051,0.1056,0.1066,0.1071,0.1075,0.1105,0.1134,0.1091,0.1092,0.1157,0.116,0.1161,0.121,0,0,0,0,0,0,0.0969,0.0972,0.0986,0.099,0.0995,0.102,0.102,0.1024,0.1052,0.1055,0.1074,0.1077,0.1072,0.1104,0.1106,0.1134,0.1093,0.1156,0.1158,0.1161,0.1207,0.1214,0.1219,0,0,0,0,0,0.0967,0.0978,0.0987,0.0991,0.1009,0.102,0.1024,0.104,0.1053,0.1066,0.1084,0.1077,0.1121,0.1106,0.1108,0.1137,0.1155,0.1158,0.1161,0.1204,0.1212,0.1219,0,0,0,0,0,0,0.0971,0.0982,0.0992,0.1006,0.1021,0.1026,0.1044,0.1054,0.1078,0.109,0.1091,0.1095,0.1134,0.1128,0.1111,0.1165,0.1138,0.1142,0.1171,0.1178,0.1184,0.1191,0.1094,0,0,0,0,0,0.0977,0.0991,0.1001,0.1017,0.1025,0.104,0.1052,0.1064,0.108,0.1092,0.1105,0.1123,0.1143,0.1156,0.1168,0.1194,0.1193,0.1216,0.1222,0.1227,0.1236,0.1257,0.1266,0.1172,0.1172,0.1172,0,0,0.0984,0.0993,0.1002,0.1019,0.1033,0.105,0.1049,0.1074,0.1098,0.1092,0.1135,0.1146,0.1155,0.1188,0.1205,0.1191,0.1255,0.1231,0.1236,0.1241,0.1261,0.127,0.1278,0.1174,0.1173,0.1173,0,0,0.0996,0.1013,0.1027,0.1041,0.1066,0.1074,0.1087,0.1106,0.1128,0.1163,0.117,0.1201,0.1226,0.124,0.1249,0.1297,0.1287,0.1304,0.1341,0.1363,0.137,0.1377,0.1389,0.1396,0.1306,0.1307,0.1307,0,0.1008,0.1023,0.1034,0.1052,0.1069,0.1088,0.1108,0.1131,0.1161,0.1182,0.1187,0.1241,0.1251,0.1292,0.1315,0.1312,0.1318,0.1311,0.137,0.1377,0.1383,0.1393,0.1401,0.1309,0.1309,0.1309,0.1308,0,0.1022,0.1046,0.1057,0.1085,0.1105,0.1127,0.1154,0.1185,0.1215,0.1234,0.1288,0.1304,0.1337,0.1348,0.135,0.1402,0.1391,0.1375,0.135,0.1396,0.1403,0.141,0.1313,0.1312,0.1311,0.1311,0,0,0.1016,0.1058,0.1066,0.1087,0.1126,0.114,0.1188,0.1228,0.1267,0.1302,0.135,0.1392,0.1406,0.1418,0.1425,0.1448,0.1502,0.1439,0.1439,0.1447,0.1549,0.1442,0.1439,0.1498,0.15,0.1501,0.1537,0,0.1027,0.1062,0.1084,0.1126,0.1145,0.1182,0.1223,0.1266,0.1308,0.1359,0.139,0.1439,0.1431,0.146,0.1483,0.1502,0.1524,0.1494,0.1505,0.1506,0.1403,0.1445,0.1506,0.1542,0.1543,0.1544,0.1545,0,0.1028,0.1053,0.1095,0.1147,0.1161,0.1197,0.1266,0.1306,0.1377,0.1413,0.1462,0.1488,0.1544,0.1527,0.1576,0.156,0.1565,0.1569,0.1569,0.1458,0.1412,0.1486,0.1558,0.1557,0.1556,0.1555,0.1554,0,0.1003,0.1058,0.1094,0.1112,0.1175,0.1214,0.1257,0.1328,0.1373,0.1458,0.1498,0.1552,0.1594,0.1612,0.1627,0.1614,0.1667,0.1643,0.1547,0.1539,0.1602,0.1594,0.1674,0.1674,0.1674,0.1674,0.1674,0,0.0989,0.1021,0.1092,0.1111,0.1163,0.1215,0.1284,0.1334,0.1417,0.1465,0.153,0.1568,0.1622,0.1653,0.1651,0.1619,0.1686,0.1561,0.1544,0.1621,0.1616,0.1607,0.1598,0.1675,0.1675,0.1675,0.1674,0,0.0951,0.0998,0.1043,0.1123,0.1153,0.1195,0.1294,0.1337,0.1425,0.1492,0.1525,0.1604,0.1639,0.1668,0.1701,0.164,0.1627,0.1597,0.1686,0.1671,0.1479,0.1473,0.1492,0.1488,0.1486,0.1483,0.1481,0,0.0929,0.0951,0.1044,0.1077,0.112,0.1192,0.1236,0.1331,0.1374,0.1492,0.1511,0.1589,0.1624,0.158,0.162,0.1604,0.1578,0.1558,0.1511,0.1481,0.1462,0.1461,0.1459,0.1477,0.1476,0.1475,0.1474,0,0.0888,0.0936,0.0974,0.1041,0.1097,0.1146,0.1219,0.1243,0.1344,0.1436,0.1458,0.1472,0.1504,0.1512,0.1512,0.1496,0.1564,0.1527,0.1532,0.1488,0.1462,0.1447,0.1448,0.1464,0.1466,0.1467,0.1467,0,0.0863,0.088,0.094,0.0989,0.1052,0.1075,0.1126,0.1168,0.1218,0.1342,0.1346,0.1417,0.1492,0.1457,0.1458,0.1435,0.1405,0.1343,0.1357,0.1369,0.1309,0.1257,0.1188,0,0,0,0,0,0.0827,0.0837,0.0881,0.092,0.0976,0.1009,0.1097,0.1148,0.1246,0.1225,0.1282,0.1302,0.1303,0.1341,0.129,0.1402,0.1413,0.1336,0.135,0.1409,0.142,0.136,0,0,0,0,0,0,0.0803,0.084,0.0852,0.0848,0.0858,0.0904,0.0954,0.1025,0.1021,0.1126,0.1135,0.1208,0.1232,0.1309,0.1257,0.1268,0.1246,0.1383,0.1379,0.1402,0.1413,0.1422,0.1364,0,0,0,0,0]},{"header":{"parameterUnit":"m.s-1","parameterCategory":2,"la1":30.2991,"la2":30.254,"lo1":-89.0895,"lo2":-89.0444,"dy":0.0017,"dx":0.0017,"nx":28,"ny":28,"refTime":"2024-02-05T09:00:00:Z","depth":"4","parameterNumber":3,"parameterNumberName":"V-component_of_CURRENTS"},"data":[0,0,0,0,0,0,0,0,0,0,0,0,0,0,0,0,0,0,0,0,0,0,0,0,0,0,0,0,0,0,0,0,0,0,0,0,0,0,0,0,0,0,0,0,0,0,0,0,0,0,0,0,0,0,0,0,0,0,0.0234,0.0234,0,0.0224,0.0224,0.0224,0.0216,0.0216,0.0216,0.0216,0.0206,0.0206,0.0206,0,0,0,0,0,0,0,0,0,0,0,0,0,0.0225,0.0225,0.0234,0.0234,0.0234,0.0224,0.0224,0.0224,0.0216,0.0216,0.0216,0.0216,0.0206,0.0206,0.0206,0,0,0,0,0,0,0,0,0,0,0,0,0,0.0223,0.0225,0.0234,0.0229,0.0228,0.0224,0.0224,0.0224,0.0216,0.0216,0.0216,0.0216,0.0206,0.0206,0.0206,0.0207,0,0,0.0205,0.0205,0,0,0,0,0,0,0,0,0.0224,0.0224,0.0229,0.0229,0.0228,0.0221,0.0217,0.0218,0.0216,0.0221,0.0216,0.0216,0.0211,0.021,0.0209,0.0206,0.0206,0.0205,0.0205,0.0204,0.0204,0,0,0,0,0,0,0,0.0224,0.0224,0.023,0.0229,0.0229,0.0219,0.0219,0.0217,0.0217,0.0221,0.022,0.0219,0.0211,0.0209,0.0209,0.0206,0.0205,0.0205,0.0204,0.0204,0.0198,0.0198,0,0,0,0,0,0,0.0226,0.0224,0.0231,0.023,0.0225,0.022,0.022,0.0224,0.0217,0.0216,0.0219,0.0218,0.021,0.0209,0.0208,0.0212,0.0204,0.0204,0.0204,0.0198,0.0198,0.0198,0,0,0,0,0,0,0.0226,0.0227,0.0231,0.0226,0.0226,0.022,0.0225,0.0224,0.0223,0.0216,0.0214,0.0219,0.021,0.0209,0.0208,0.0211,0.0204,0.0204,0.0198,0.0198,0.0198,0.0217,0,0,0,0,0,0,0.0226,0.0227,0.0232,0.0227,0.0227,0.0233,0.0225,0.0224,0.0222,0.0221,0.0215,0.0214,0.021,0.0208,0.0208,0.0211,0.0204,0.0198,0.0198,0.0198,0.0216,0.0217,0.0219,0,0,0,0,0,0.0226,0.0235,0.0233,0.0233,0.0234,0.0234,0.0233,0.0228,0.0222,0.0225,0.0219,0.0215,0.0207,0.0208,0.0207,0.021,0.0198,0.0198,0.0198,0.0216,0.0217,0.0219,0,0,0,0,0,0,0.0234,0.0235,0.0232,0.0242,0.0239,0.0232,0.0235,0.0229,0.0226,0.0225,0.0217,0.0215,0.0215,0.0209,0.021,0.0207,0.0201,0.0201,0.0215,0.0216,0.0217,0.0228,0.0203,0,0,0,0,0,0.0238,0.0245,0.0242,0.0249,0.0249,0.0242,0.0241,0.0237,0.0232,0.0231,0.0225,0.0218,0.0214,0.0213,0.0209,0.0209,0.0197,0.0209,0.021,0.0211,0.0219,0.0199,0.02,0.0197,0.0197,0.0197,0,0,0.0243,0.0244,0.0248,0.0251,0.0249,0.0254,0.0241,0.0242,0.0247,0.023,0.0235,0.0223,0.0215,0.0215,0.0214,0.0211,0.0204,0.0211,0.0212,0.0219,0.0199,0.02,0.02,0.0197,0.0197,0.0197,0,0,0.0257,0.0258,0.0269,0.0269,0.0267,0.0263,0.0264,0.0258,0.0257,0.0258,0.0246,0.0237,0.0233,0.0226,0.0223,0.0228,0.0211,0.0223,0.0239,0.022,0.022,0.022,0.0198,0.0195,0.0223,0.0223,0.0223,0,0.0262,0.0278,0.0271,0.028,0.0285,0.0269,0.0282,0.0278,0.0272,0.0273,0.0264,0.0249,0.024,0.024,0.0239,0.0232,0.0215,0.0235,0.0221,0.0221,0.0221,0.0198,0.0196,0.0224,0.0224,0.0224,0.0224,0,0.0284,0.0296,0.0302,0.0311,0.0313,0.0321,0.0316,0.0317,0.0309,0.0302,0.0298,0.028,0.0272,0.0263,0.0254,0.0247,0.0233,0.0225,0.0219,0.0222,0.0198,0.0195,0.0226,0.0225,0.0225,0.0225,0,0,0.0302,0.0316,0.032,0.0332,0.0332,0.0338,0.0346,0.0351,0.0359,0.0341,0.0347,0.0328,0.0309,0.0304,0.0284,0.0266,0.0243,0.0245,0.0244,0.0226,0.0196,0.0186,0.0181,0.023,0.023,0.023,0.0178,0,0.0324,0.0352,0.0351,0.0378,0.0392,0.0384,0.0395,0.0394,0.0388,0.0387,0.036,0.0355,0.0327,0.0321,0.0297,0.026,0.0237,0.0258,0.0194,0.0192,0.0185,0.0178,0.0229,0.0175,0.0175,0.0174,0.0174,0,0.0351,0.0366,0.0399,0.0419,0.0425,0.0437,0.0454,0.0461,0.0451,0.0444,0.0425,0.04,0.0372,0.0347,0.0282,0.0295,0.0249,0.0215,0.0212,0.0197,0.0176,0.0173,0.0168,0.0168,0.0169,0.0169,0.017,0,0.0376,0.0402,0.0432,0.0439,0.0456,0.0473,0.0481,0.0481,0.0494,0.0479,0.048,0.0437,0.0419,0.0358,0.0284,0.0281,0.0209,0.0196,0.0142,0.0141,0.0158,0.0158,0.015,0.015,0.015,0.015,0.015,0,0.0403,0.0429,0.0449,0.0467,0.0505,0.0504,0.0539,0.0539,0.0542,0.0556,0.0512,0.0508,0.0421,0.0367,0.0295,0.021,0.0214,0.0146,0.0128,0.0166,0.0168,0.0155,0.0156,0.0148,0.0149,0.0149,0.0149,0,0.0429,0.0442,0.048,0.0507,0.0521,0.0549,0.0583,0.0603,0.0599,0.0615,0.0612,0.056,0.0487,0.0395,0.0294,0.0229,0.0147,0.0114,0.0161,0.0146,0.0087,0.009,0.005,0.0049,0.0048,0.0048,0.0047,0,0.0444,0.0468,0.0513,0.054,0.0558,0.0598,0.0625,0.0635,0.0656,0.0648,0.0657,0.0593,0.0545,0.0395,0.0295,0.0153,0.0131,0.0083,0.0084,0.0091,0.0078,0.0082,0.0085,0.0046,0.0046,0.0046,0.0046,0,0.0473,0.0493,0.0523,0.0577,0.0617,0.0662,0.07,0.0718,0.0724,0.072,0.0688,0.0604,0.052,0.0397,0.0284,0.0184,0.0112,0.0075,0.0076,0.0077,0.0086,0.0075,0.0079,0.0044,0.0044,0.0044,0.0044,0,0.0497,0.0523,0.0564,0.0611,0.0664,0.0711,0.0727,0.0744,0.0759,0.074,0.0728,0.0628,0.0569,0.0413,0.0314,0.0209,0.018,0.0141,0.0138,0.0139,0.0178,0.0203,0.0183,0,0,0,0,0,0.0516,0.0548,0.0592,0.0646,0.0695,0.0731,0.0772,0.078,0.0783,0.0764,0.0745,0.0662,0.0502,0.0438,0.0332,0.0302,0.0165,0.0173,0.0119,0.0031,0.0034,0.0063,0,0,0,0,0,0,0.0532,0.0578,0.0595,0.0665,0.0707,0.0768,0.0799,0.08,0.0788,0.0769,0.0688,0.0634,0.0486,0.0567,0.0331,0.03,0.0249,0.0098,0.0096,0.0029,0.0032,0.0034,0.0065,0,0,0,0,0]}]]